FW7863 Weather Reports


Display with metric or nautical units.
time (UTC)temp
F
wind
direction
speed
MPH
gust
MPH
rain 1hr
in
rain 24hr
in
rain mn
in
humidity
%
barometer
mb
20260505022922 61 172 0.0 3.0 0.00 0.00 0.00 67 1010.4
20260505022420 61 152 0.0 1.0 0.00 0.00 0.00 67 1010.5
20260505021917 61 166 0.0 1.0 0.00 0.00 0.00 67 1010.3
20260505021413 61 159 0.0 1.0 0.00 0.00 0.00 66 1010.5
20260505020909 61 159 1.0 1.0 0.00 0.00 0.00 65 1010.4
20260505020404 61 144 0.0 1.0 0.00 0.00 0.00 65 1010.5
20260505015902 62 157 0.0 1.0 0.00 0.00 0.00 64 1010.6
20260505015359 62 152 0.0 1.0 0.00 0.00 0.00 63 1010.4
20260505014856 62 137 0.0 0.0 0.00 0.00 0.00 61 1010.5
20260505014353 61 146 0.0 0.0 0.00 0.00 0.00 60 1010.6
20260505013849 61 146 1.0 2.0 0.00 0.00 0.00 59 1010.4
20260505013346 61 142 0.0 0.0 0.00 0.00 0.00 60 1010.5
20260505012845 62 147 0.0 0.0 0.00 0.00 0.00 59 1010.1
20260505012343 62 147 0.0 0.0 0.00 0.00 0.00 58 1010.2
20260505011838 62 148 0.0 0.0 0.00 0.00 0.00 57 1010.3
20260505011335 62 145 0.0 0.0 0.00 0.00 0.00 58 1010.0
20260505010831 62 150 0.0 0.0 0.00 0.00 0.00 57 1010.1
20260505010327 62 142 0.0 0.0 0.00 0.00 0.00 57 1009.9
20260505005823 62 147 0.0 0.0 0.00 0.00 0.00 57 1009.9
20260505005320 63 137 0.0 0.0 0.00 0.00 0.00 56 1010.0
20260505004818 63 136 0.0 0.0 0.00 0.00 0.00 54 1010.0
20260505004314 63 150 0.0 0.0 0.00 0.00 0.00 54 1009.7
20260505003812 64 129 0.0 0.0 0.00 0.00 0.00 54 1009.9
20260505003309 64 144 0.0 0.0 0.00 0.00 0.00 53 1010.0
20260505002805 64 145 0.0 0.0 0.00 0.00 0.00 52 1009.9
20260505002304 64 147 0.0 0.0 0.00 0.00 0.00 52 1009.8
20260505001800 65 144 0.0 1.0 0.00 0.00 0.00 51 1009.6
20260505001257 65 146 0.0 0.0 0.00 0.00 0.00 52 1009.8
20260505000754 65 148 0.0 1.0 0.00 0.00 0.00 51 1009.6
20260505000252 66 156 0.0 1.0 0.00 0.00 0.00 50 1009.5
20260504235748 66 148 0.0 0.0 0.00 0.00 0.00 49 1009.5
20260504235245 66 139 0.0 2.0 0.00 0.00 0.00 49 1009.4
20260504234742 66 142 0.0 0.0 0.00 0.00 0.00 47 1009.5
20260504234239 67 141 0.0 0.0 0.00 0.00 0.00 48 1009.4
20260504233735 67 146 0.0 0.0 0.00 0.00 0.00 47 1009.6
20260504233231 68 147 0.0 0.0 0.00 0.00 0.00 46 1009.5
20260504232729 68 148 0.0 0.0 0.00 0.00 0.00 45 1009.4
20260504232226 69 182 1.0 2.0 0.00 0.00 0.00 41 1009.4
20260504231722 69 155 0.0 1.0 0.00 0.00 0.00 42 1009.5
20260504231219 70 140 1.0 1.0 0.00 0.00 0.00 40 1009.6
20260504230715 70 150 0.0 2.0 0.00 0.00 0.00 40 1009.4
20260504230214 71 170 0.0 1.0 0.00 0.00 0.00 39 1009.4
20260504225712 71 105 0.0 1.0 0.00 0.00 0.00 39 1009.5
20260504225208 71 153 1.0 3.0 0.00 0.00 0.00 38 1009.7
20260504224705 71 157 0.0 1.0 0.00 0.00 0.00 39 1009.5
20260504224202 72 310 3.0 6.0 0.00 0.00 0.00 36 1009.3
20260504223659 72 127 1.0 8.0 0.00 0.00 0.00 39 1009.5
20260504223154 72 187 3.0 6.0 0.00 0.00 0.00 36 1009.4
20260504222651 73 140 2.0 2.0 0.00 0.00 0.00 34 1009.2
20260504222148 74 159 1.0 1.0 0.00 0.00 0.00 34 1009.3
20260504221646 73 151 1.0 2.0 0.00 0.00 0.00 35 1009.4
20260504221143 74 169 3.0 6.0 0.00 0.00 0.00 34 1009.3
20260504220639 74 169 0.0 2.0 0.00 0.00 0.00 34 1009.3
20260504220137 75 140 0.0 3.0 0.00 0.00 0.00 35 1009.6
20260504215632 74 199 1.0 5.0 0.00 0.00 0.00 34 1009.4
20260504215130 74 253 3.0 5.0 0.00 0.00 0.00 34 1009.4
20260504214625 75 161 1.0 2.0 0.00 0.00 0.00 34 1009.5
20260504214117 75 163 1.0 3.0 0.00 0.00 0.00 33 1009.4
20260504213613 75 198 1.0 3.0 0.00 0.00 0.00 33 1009.6
20260504213110 75 147 0.0 1.0 0.00 0.00 0.00 34 1009.3
20260504212606 75 210 3.0 7.0 0.00 0.00 0.00 33 1009.5
20260504212104 75 359 2.0 5.0 0.00 0.00 0.00 33 1009.6
20260504211600 75 81 3.0 5.0 0.00 0.00 0.00 32 1009.4
20260504211057 75 97 1.0 3.0 0.00 0.00 0.00 33 1009.4
20260504210555 75 245 3.0 7.0 0.00 0.00 0.00 32 1009.4
20260504210051 75 168 2.0 9.0 0.00 0.00 0.00 33 1009.5
20260504205549 75 138 1.0 6.0 0.00 0.00 0.00 32 1009.6
20260504205047 75 169 1.0 7.0 0.00 0.00 0.00 33 1009.4
20260504204544 75 226 1.0 2.0 0.00 0.00 0.00 32 1009.4
20260504204043 75 258 7.0 9.0 0.00 0.00 0.00 31 1009.6
20260504203541 75 240 3.0 5.0 0.00 0.00 0.00 32 1009.4
20260504203038 75 331 3.0 5.0 0.00 0.00 0.00 31 1009.5
20260504202533 76 183 2.0 5.0 0.00 0.00 0.00 31 1009.3
20260504202031 75 166 1.0 2.0 0.00 0.00 0.00 31 1009.4
20260504201527 75 186 3.0 7.0 0.00 0.00 0.00 31 1009.5
20260504201026 75 167 2.0 3.0 0.00 0.00 0.00 31 1009.6
20260504200521 75 300 2.0 3.0 0.00 0.00 0.00 30 1009.4
20260504200019 76 269 5.0 7.0 0.00 0.00 0.00 30 1009.6
20260504195514 76 207 0.0 2.0 0.00 0.00 0.00 32 1009.8
20260504195011 76 219 2.0 5.0 0.00 0.00 0.00 31 1009.8
20260504194508 75 274 3.0 6.0 0.00 0.00 0.00 31 1009.9
20260504194003 74 178 2.0 5.0 0.00 0.00 0.00 29 1009.8
20260504193500 74 129 3.0 6.0 0.00 0.00 0.00 31 1009.9
20260504192959 75 255 4.0 6.0 0.00 0.00 0.00 31 1009.9
20260504192456 75 284 2.0 6.0 0.00 0.00 0.00 31 1010.3
20260504191955 75 259 1.0 5.0 0.00 0.00 0.00 31 1010.1
20260504191452 74 280 4.0 7.0 0.00 0.00 0.00 31 1010.1
20260504190947 75 163 1.0 5.0 0.00 0.00 0.00 35 1010.4
20260504190443 74 158 1.0 6.0 0.00 0.00 0.00 34 1010.3
20260504185940 73 245 3.0 6.0 0.00 0.00 0.00 33 1010.5
20260504185438 73 113 3.0 7.0 0.00 0.00 0.00 33 1010.5
20260504184934 75 167 2.0 3.0 0.00 0.00 0.00 30 1010.4
20260504184429 72 210 3.0 8.0 0.00 0.00 0.00 32 1010.8
20260504183925 73 208 4.0 6.0 0.00 0.00 0.00 32 1010.7
20260504183423 73 278 3.0 8.0 0.00 0.00 0.00 30 1010.8
20260504182921 73 196 0.0 3.0 0.00 0.00 0.00 33 1010.7
20260504182417 72 270 4.0 7.0 0.00 0.00 0.00 31 1011.0
20260504181914 73 353 3.0 6.0 0.00 0.00 0.00 32 1011.0
20260504181412 73 139 2.0 5.0 0.00 0.00 0.00 32 1011.1
20260504180910 73 197 2.0 5.0 0.00 0.00 0.00 31 1011.1
20260504180409 73 251 3.0 6.0 0.00 0.00 0.00 32 1011.4
20260504175907 73 177 0.0 6.0 0.00 0.00 0.00 32 1011.6
20260504175403 74 303 1.0 9.0 0.00 0.00 0.00 31 1011.3
20260504174901 72 241 1.0 2.0 0.00 0.00 0.00 31 1011.5
20260504174358 71 276 3.0 6.0 0.00 0.00 0.00 32 1011.6
20260504173855 71 270 3.0 9.0 0.00 0.00 0.00 31 1011.8
20260504173352 72 340 3.0 5.0 0.00 0.00 0.00 33 1012.0
20260504172849 72 158 0.0 5.0 0.00 0.00 0.00 36 1011.6
20260504172346 71 154 1.0 8.0 0.00 0.00 0.00 33 1011.8
20260504171841 70 170 1.0 5.0 0.00 0.00 0.00 35 1011.7
20260504171339 71 247 2.0 8.0 0.00 0.00 0.00 33 1011.9
20260504170836 71 196 1.0 5.0 0.00 0.00 0.00 33 1012.1
20260504170332 71 209 5.0 7.0 0.00 0.00 0.00 32 1012.0
20260504160251 69 180 0.0 5.0 0.00 0.00 0.00 36 1012.8
20260504150716 68 143 1.0 2.0 0.00 0.00 0.00 44 1013.6
20260504150213 67 197 2.0 2.0 0.00 0.00 0.00 45 1013.3
20260504141142 65 175 2.0 3.0 0.00 0.00 0.00 49 1013.4
20260504140639 66 174 5.0 8.0 0.00 0.00 0.00 49 1013.6
20260504140135 65 142 0.0 7.0 0.00 0.00 0.00 52 1013.3
20260504130603 61 135 0.0 5.0 0.00 0.00 0.00 56 1013.9
20260504110450 52 134 0.0 0.0 0.00 0.00 0.00 75 1014.7
20260504100413 45 136 0.0 1.0 0.00 0.00 0.00 87 1014.6
20260504081806 47 141 0.0 0.0 0.00 0.00 0.00 73 1014.8
20260504081303 48 158 0.0 0.0 0.00 0.00 0.00 71 1014.4
20260504080759 48 169 0.0 1.0 0.00 0.00 0.00 70 1014.6
20260504080255 48 136 0.0 0.0 0.00 0.00 0.00 70 1014.7
20260504070223 45 133 0.0 0.0 0.00 0.00 0.00 73 1014.5
20260504060144 46 142 0.0 0.0 0.00 0.00 0.00 70 1014.4
20260504050612 46 139 0.0 0.0 0.00 0.00 0.00 69 1014.2
20260504050109 46 144 0.0 0.0 0.00 0.00 0.00 69 1014.4
20260504045606 46 147 0.0 0.0 0.00 0.00 0.00 67 1014.3
20260504045100 46 141 0.0 0.0 0.00 0.00 0.00 67 1014.2
20260504044558 46 140 0.0 0.0 0.00 0.00 0.00 67 1014.3
20260504044055 46 138 0.0 0.0 0.00 0.00 0.00 67 1014.0
20260504043553 47 141 0.0 0.0 0.00 0.00 0.00 67 1014.3
20260504043049 46 129 0.0 0.0 0.00 0.00 0.00 66 1014.0
20260504042546 47 143 0.0 0.0 0.00 0.00 0.00 67 1014.2
20260504042043 47 135 0.0 0.0 0.00 0.00 0.00 67 1014.2
20260504041539 47 140 0.0 0.0 0.00 0.00 0.00 67 1014.1
20260504041036 46 133 0.0 0.0 0.00 0.00 0.00 66 1013.9
20260504040533 46 146 0.0 0.0 0.00 0.00 0.00 66 1013.8
20260504040030 46 140 0.0 0.0 0.00 0.00 0.00 66 1013.9
20260504035527 46 143 0.0 0.0 0.00 0.00 0.00 67 1013.8
20260504035023 46 142 0.0 0.0 0.00 0.00 0.00 67 1013.8
20260504034521 46 143 0.0 0.0 0.00 0.00 0.00 68 1013.9
20260504034017 46 141 0.0 0.0 0.00 0.00 0.00 68 1013.8
20260504033515 46 145 0.0 0.0 0.00 0.00 0.00 67 1013.8
20260504033013 46 141 0.0 0.0 0.00 0.00 0.00 67 1013.7
20260504032509 46 147 0.0 0.0 0.00 0.00 0.00 66 1013.7
20260504032006 46 145 0.0 0.0 0.00 0.00 0.00 66 1013.6
20260504031503 46 142 0.0 0.0 0.00 0.00 0.00 65 1013.7
20260504030959 46 141 0.0 0.0 0.00 0.00 0.00 65 1013.4
20260504030457 47 151 0.0 0.0 0.00 0.00 0.00 63 1013.7
20260504025952 47 149 0.0 0.0 0.00 0.00 0.00 61 1013.7
20260504025450 47 147 0.0 0.0 0.00 0.00 0.00 60 1013.7
20260504024946 48 145 0.0 0.0 0.00 0.00 0.00 61 1013.6
20260504024443 48 140 0.0 0.0 0.00 0.00 0.00 59 1013.6
20260504023940 48 140 0.0 0.0 0.00 0.00 0.00 59 1013.7
20260504023437 48 138 0.0 0.0 0.00 0.00 0.00 59 1013.7